VKG491 LCLK-ESMX

Flight info

Callsign VKG491
Flight time N/A
Altitude 34000
Route PHA M31 GENOS DCT PEDER DCT EVENO UM601 EXELA UN127 IMR UN128 LMO DCT EVIVI L863 OKANA DCT PARAK DCT BILNA/N0449F360 DCT SOPAV DCT REGLI DCT DENKO L996 GOSOT DCT JX
Aircraft A321/M-SDE2E3FGHIJ1RWXYZ/LB2

Departure

Time 2026-05-01 12:20
Airport Larnaca International Airport (LCLK)

Arrival

Time N/A
Airport Växjö Kronoberg Airport (ESMX)
Time Latitude Longitude Altitude Speed Heading
2026-05-01 11:41 34.87076 33.61017 20 ft 0 kts 225°
2026-05-01 12:10 34.87087 33.61030 22 ft 4 kts 230°
2026-05-01 12:10 34.87108 33.61081 22 ft 4 kts 236°
2026-05-01 12:10 34.87122 33.61093 23 ft 4 kts 151°
2026-05-01 12:11 34.87144 33.61068 20 ft 0 kts 135°
2026-05-01 12:13 34.87144 33.61069 20 ft 1 kts 135°
2026-05-01 12:13 34.87111 33.61109 20 ft 12 kts 135°
2026-05-01 12:13 34.87042 33.61191 20 ft 14 kts 135°
2026-05-01 12:13 34.86977 33.61269 20 ft 12 kts 135°
2026-05-01 12:14 34.86946 33.61357 18 ft 13 kts 70°
2026-05-01 12:14 34.87009 33.61444 16 ft 15 kts 43°
2026-05-01 12:14 34.87080 33.61532 19 ft 14 kts 45°
2026-05-01 12:14 34.87155 33.61622 19 ft 18 kts 45°
2026-05-01 12:15 34.87257 33.61746 19 ft 22 kts 45°
2026-05-01 12:15 34.87361 33.61873 18 ft 20 kts 45°
2026-05-01 12:15 34.87457 33.61991 16 ft 19 kts 45°
2026-05-01 12:15 34.87519 33.62092 16 ft 11 kts 83°
2026-05-01 12:16 34.87503 33.62169 18 ft 9 kts 91°
2026-05-01 12:16 34.87548 33.62245 17 ft 15 kts 46°
2026-05-01 12:16 34.87633 33.62348 17 ft 19 kts 45°
2026-05-01 12:16 34.87735 33.62471 18 ft 23 kts 45°
2026-05-01 12:17 34.87855 33.62618 22 ft 24 kts 45°
2026-05-01 12:17 34.87969 33.62756 20 ft 23 kts 45°
2026-05-01 12:17 34.88075 33.62885 22 ft 20 kts 45°
2026-05-01 12:17 34.88172 33.63005 18 ft 20 kts 46°
2026-05-01 12:18 34.88266 33.63120 18 ft 18 kts 45°
2026-05-01 12:18 34.88350 33.63223 17 ft 16 kts 45°
2026-05-01 12:18 34.88427 33.63315 17 ft 12 kts 45°
2026-05-01 12:18 34.88440 33.63380 19 ft 6 kts 106°
2026-05-01 12:19 34.88415 33.63422 19 ft 7 kts 134°
2026-05-01 12:19 34.88388 33.63473 19 ft 8 kts 108°
2026-05-01 12:19 34.88373 33.63549 20 ft 9 kts 129°
2026-05-01 12:19 34.88315 33.63539 17 ft 12 kts 222°
2026-05-01 12:20 34.88171 33.63365 17 ft 58 kts 225°
2026-05-01 12:20 34.87741 33.62841 22 ft 114 kts 225°
2026-05-01 12:20 34.87064 33.62024 31 ft 157 kts 223°
2026-05-01 12:20 34.86286 33.61093 642 ft 151 kts 224°
2026-05-01 12:21 34.85564 33.60156 1246 ft 152 kts 225°
2026-05-01 12:21 34.84843 33.59205 1797 ft 156 kts 225°
2026-05-01 12:21 34.84068 33.58190 2036 ft 174 kts 227°
2026-05-01 12:21 34.83190 33.57043 2155 ft 195 kts 227°
2026-05-01 12:22 34.82217 33.55777 2307 ft 215 kts 227°
2026-05-01 12:22 34.81133 33.54372 2437 ft 240 kts 227°
2026-05-01 12:22 34.79948 33.52842 2831 ft 254 kts 227°
2026-05-01 12:22 34.78719 33.51266 3480 ft 258 kts 226°
2026-05-01 12:23 34.77477 33.49676 4181 ft 261 kts 227°
2026-05-01 12:23 34.76216 33.48060 4806 ft 266 kts 227°
2026-05-01 12:23 34.74928 33.46412 5435 ft 271 kts 228°
2026-05-01 12:23 34.73615 33.44733 6068 ft 276 kts 228°
2026-05-01 12:24 34.72280 33.43031 6683 ft 280 kts 229°
2026-05-01 12:24 34.70951 33.41336 7322 ft 281 kts 228°
2026-05-01 12:24 34.69582 33.39588 8012 ft 282 kts 230°
2026-05-01 12:24 34.68489 33.37636 8695 ft 279 kts 249°
2026-05-01 12:25 34.68017 33.35368 9343 ft 278 kts 268°
2026-05-01 12:25 34.68187 33.30702 10353 ft 291 kts 273°
2026-05-01 12:25 34.68294 33.28161 10476 ft 311 kts 273°
2026-05-01 12:26 34.68401 33.25464 10609 ft 329 kts 272°
2026-05-01 12:26 34.68621 33.19741 11433 ft 344 kts 272°
2026-05-01 12:26 34.68733 33.16837 12041 ft 346 kts 272°
2026-05-01 12:27 34.68848 33.13912 12629 ft 348 kts 272°
2026-05-01 12:27 34.69084 33.07990 13745 ft 354 kts 272°